Location: A�t �Alizem
(31.2076°N, 8.7872°W)
Time: 10:03:06
(UTC+00:00)

N. Korean satellite - Pass Details

Date: 22 September 2021
Orbit: 450 x 495 km, 97.3° (Epoch: 15 October)

Event Time Altitude Azimuth Distance (km) Brightness Sun altitude
Rises 04:59:00 0° 31° (NNE) 2,521 10.9 -18.8°
Reaches altitude 10° 05:01:33 10° 52° (NE) 1,649 10.2 -18.2°
Maximum altitude 05:04:02 18° 96° (E) 1,247 9.6 -17.7°
Drops below altitude 10° 05:06:30 10° 140° (SE) 1,659 9.6 -17.2°
Sets 05:09:05 0° 160° (SSE) 2,543 10.3 -16.6°
